Showing default

SAUDIGEOSAT1/HELLASSAT4, 44034

Orbit data source: Space-Track

SAUDIGEOSAT1/HELLASSAT4, 44034 is a Greek payload satellite in GEO that was launched on Tue, 05 Feb 2019 UTC via an ARIANE 5ECA launch vehicle from the French Guiana (FRGUI). Payload-class satellites include a variety of spacecraft equipped with specific instruments for various scientific and technological missions. These include communications satellites like Starlink; space stations such as the ISS; scientific satellites like the Hubble; Earth observation satellites from companies like Planet Labs, Umbra, and HawkEye 360; GPS; miniature CubeSats for education and research; and military/defense satellites.

Not visible in the next 10 days
Identifier
44034, 2019-007A
Orbit
GEO
Country
Flag of GRGR / GREC
Related business
Manufacturer
LMSS
Mission
Operational Civil Communications
Bus & Motor
A2100TR, BT-4?
Mass
6,495 kg wet, ~3,000 kg dry
Launch date (UTC)
2019-02-05 (7 years ago)
Launch vehicle
ARIANE 5ECA
Launch site
French Guiana (FRGUI)
Object type
Payload
Rocket body
Debris
Shape & HBR
Box + 2 Pan, 15.0 m
Radar Cross Section
73.223 m², Large (>1 m²)

Expand to show TLE details & history
Last TLE update: 2 days ago

TLE from 2 days ago
0 SAUDIGEOSAT1/HELLASSAT4
1 44034U 19007A   26171.25717021  .00000148  00000-0  00000+0 0  9996
2 44034   0.0753 127.6682 0004983  12.3910 260.0061  1.00267834 27391
Epoch: 2026-06-20T06:10Z
TLE epoch observation values (Epoch: 2026-06-20T06:10:19.506Z)
Latitude
-0.0598°
Longitude
38.96592°
Altitude
35,790.762 km
Speed
3.074 km/s
True Right ascension
02h 40m 05s
True Declination
0° 03' 35"
Sunlit
Object was in daylight at epoch
Visualization orbit readout
Latitude
Unknown
Longitude
Unknown
Altitude
Unknown
Speed
Unknown
Apparent Right ascension
Unknown
Apparent Declination
Unknown
Sunlit
N/A
Visualization observer readout
Local Sidereal Time
21:39:46
Azimuth
Unknown
Elevation
Unknown
Doppler factor
Unknown
Orbital elements
Apogee altitude
35,809.785 km
Perigee altitude
35,767.761 km
Semi-major axis
42,166.91 km
Eccentricity
0.0005
Inclination
0.0753°
RAAN
127.6682°
Arg. of periapsis
12.391°
True anomaly
259.94987°
Mean anomaly
260.0061°
Eccentric anomaly
259.97799°
Mean motion
0.25066 °/min
Orbital period
1,436.21 mins
BSTAR
0
Loading maneuver chart data...
Computing Atmospheric mass density...
Loading historical data...
Loading historical data...
Loading historical data...
Loading historical data...
Loading historical data...
Loading historical data...
Loading historical data...
Other satellites on launch #7 in the year 2019 (2019-02-05 UTC)

Documentation

Showing up to 5 results
|